Regional Weather Roundup
Issued by NWS Charleston, SC

Current Version | Previous Version | Text Only | Print | Product List | Glossary On
Versions: 1 2 3 4 5 6 7 8 9 10 11 12 13 14 15 16 17 18 19 20 21 22 23 24 25 26 27 28 29 30 31 32 33 34 35 36 37 38 39 40 41 42 43 44 45 46 47 48 49 50
000 ASUS42 KCHS 310910 RWRCHS REGIONAL WEATHER ROUNDUP NATIONAL WEATHER SERVICE CHARLESTON SC 500 AM EDT THU JUL 31 2014 NOTE: "FAIR" INDICATES FEW OR NO CLOUDS BELOW 12,000 FEET WITH NO SIGNIFICANT WEATHER AND/OR OBSTRUCTIONS TO VISIBILITY. NOT ALL STATIONS ARE QUALITY CONTROLLED BY THE NATIONAL WEATHER SERVICE. USE DATA WITH CAUTION...ESPECIALLY DEWPOINT OBSERVATIONS. SCZ027-030-031-034>040-042>050-311000- ...SOUTH CAROLINA... CITY SKY/WX TMP DP RH WIND PRES REMARKS N CHARLESTON CLOUDY 76 71 85 NE6 30.01S WATERFRONT PRK N/A 82 N/A N/A E8 N/A FORT JOHNSON NOT AVBL MOUNT PLEASANT NOT AVBL JOHNS ISLAND NOT AVBL PINOPOLIS N/A 77 72 83 E6 29.93F MONCKS CORNER NOT AVBL SUMMERVILLE CLOUDY 72 72 100 CALM 30.02S BEAUFORT MCAS CLOUDY 76 72 87 E7 29.98F BEAUFORT ARPT CLOUDY 75 73 94 CALM 29.97F HILTON HEAD IS NOT AVBL GEORGETOWN NOT AVBL WALTERBORO CLOUDY 73 N/A N/A NW3 30.02R ORANGEBURG CLOUDY 72 68 87 NE8 30.03S BARNWELL FAIR 73 70 88 NE6 30.02S AIKEN NOT AVBL MANNING NOT AVBL KINGSTREE NOT AVBL COLUMBIA MOCLDY 75 66 73 E3 30.04R SUMTER MOCLDY 69 68 96 NE6 30.03S FLORENCE PTCLDY 70 66 87 NE6 30.05S MYRTLE BEACH PTCLDY 81 70 69 E7 30.03S N MYRTLE BEACH PTCLDY 72 67 84 NE5 30.04S $$ GAZ063-065-086>088-099>101-113>116-118-119-134-136>141-150-311000- ...GEORGIA... CITY SKY/WX TMP DP RH WIND PRES REMARKS SAVANNAH ARPT PTCLDY 75 71 87 NE3 29.97F HUNTER AAF CLEAR 75 72 92 NE3 29.95S FORT STEWART CLOUDY 74 71 90 NE2 29.96S STATESBORO NOT AVBL SYLVANIA CLOUDY 74 73 98 CALM 30.01R CLAXTON FAIR N/A N/A N/A CALM 29.98S HAZE THOMSON MOCLDY 73 72 96 CALM 30.08R AUGUSTA-BUSH CLOUDY 73 69 87 N5 30.02R AUGUSTA-DANIEL CLOUDY 75 68 78 NE6 30.03S SWAINSBORO FAIR 72 72 100 NE3 30.01R VIDALIA N/A 73 72 94 CALM 29.99S ALMA PTCLDY 73 71 93 CALM 29.96F WAYCROSS PTCLDY 74 74 99 CALM 29.96S FOG JESUP FAIR 77 73 88 CALM 29.96F BRUNSWICK CLEAR 75 72 88 CALM 29.95S SAINT SIMONS CLEAR 77 73 87 CALM 29.94S $$ SCZ027-028-034-036>038-045-046-048>050-GAZ119-141-311000- ...LAKE AND SUPPLEMENTAL COASTAL OBSERVATIONS... STATION/POSITION TIME TEMP WIND PRES WAVE SWELL AIR SEA DIR/SP/G HT/PER HT/PER/DIR (UTC) (F) (DEG/KT/KT) (MB) (FT/S) (FT/S/D) UPR LAKE MARION NOT AVBL WINYAH BAY 0800 80 90/ 7 1016.0S LAKE MURRAY 0800 72 60/ 1/ 4 1016.6F ACE BASIN NERRS 0800 78 CALM 1016.0S FORT PULASKI 0900 82 110/ 7/ 10 1014.9S SAPELO ISLAND 0800 81 100/ 5 1014.0F $$ ANZ835-935-AMZ111-154-330-350-352-354-374-450-454-472-311000- ...C-MAN AND BUOY OBSERVATIONS... STATION/POSITION TIME TEMP WIND PRES WAVE SWELL AIR SEA DIR/SP/G HT/PER HT/PER/DIR (UTC) (F) (DEG/KT/KT) (MB) (FT/S) (FT/S/D) FOLLY BEACH CMAN 0800 81 90/ 12/ 13 1016.2F BUOY 41004 0900 82 83 70/ 12/ 16 1015.1F 4/ 6 2/ 6 BUOY 41008 0900 83 85 140/ 10/ 12 1014.1R 3/ 5 2/100/ 5 5E ST. MARYS GA 0900 85 N/A 2/ 5 FRYING PAN BUOY NOT AVBL BUOY 41025 0900 VRB 10/ 12 1018.0R 4/ 7 3/110/ 7 CAPE LOOKOUT NC 0800 79 90/ 12/ 12 1017.8R BUOY 41002 0753 79 80 10/ 4/ 6 1016.8 4/ 6 3/160/ 6 BUOY 41010 0900 83 84 170/ 10/ 12 1014.8F 2/ 8 2/ 80/ 8 BUOY 41012 NOT AVBL ST AUGUSTINE FL 0900 75 260/ 6/ 7 1014.9R CAPERS NEARSHORE 0800 81 90/ 12/ 16 N/A FRIPP NEARSHORE NOT AVBL $$

USA.gov is the U.S. government's official web portal to all federal, state and local government web resources and services.